Regional Weather Roundup
Issued by NWS Goodland, KS

Home | Current Version | Previous Version | Graphics & Text | Print | Product List | Glossary On
Versions: 1 2 3 4 5 6 7 8 9 10 11 12 13 14 15 16 17 18 19 20 21 22 23 24 25 26 27 28 29 30 31 32 33 34 35 36 37 38 39 40 41 42 43 44 45 46 47 48 49 50
878
ASUS43 KGLD 171959
RWRGLD

GOODLAND FORECAST AREA HOURLY WEATHER ROUNDUP
NATIONAL WEATHER SERVICE GOODLAND KS
200 PM MDT THU AUG 17 2017

...OFFICIAL OBSERVATIONS...

CITY           SKY/WX    TMP DP  RH WIND       PRES   REMARKS
GOODLAND KS    SUNNY     83  57  41 S15       30.06F
HILL CITY KS   SUNNY     89  50  26 S8        30.02F
IMPERIAL NEB   SUNNY     88  54  31 SW15      30.02F
MCCOOK NEB     SUNNY     87  57  35 SW8       30.01F
AKRON CO       SUNNY     85  41  21 W12       30.08F
BURLINGTON CO  SUNNY     83  60  45 SW12      30.10F
LIMON CO       MOSUNNY   78  54  43 SW9       30.14F
$$

...UNOFFICIAL OBSERVATIONS...

CITY           SKY/WX    TMP DP  RH WIND       PRES   REMARKS
LENORA KS        N/A     86  32  14 S5          N/A
NORTON KS      SUNNY     88  43  20 W5        30.01F
SHARON SPRINGS   N/A     86  61  42 SW12G30     N/A
TRENTON NEB      N/A     88  32  13 S8          N/A
KIT CARSON CO    N/A     82  57  42 MISG        N/A
YUMA CO        FAIR      82  37  20 S7G17     30.04F
$$




USA.gov is the U.S. government's official web portal to all federal, state and local government web resources and services.